CCR1023 SBGR-SBLO

Flight info

Callsign CCR1023
Flight time 0h 51m
Altitude 36000
Route EGEVA UZ58 UMPIG
Aircraft B737/M-SDE3FGHIJ4J5M1RWXYZ/LB1D1

Departure

Time 2026-04-22 23:57
Airport São Paulo/Guarulhos–Governor André Franco Montoro International Airport (SBGR)

Arrival

Time 2026-04-23 00:48
Airport Governor José Richa Airport (SBLO)
Time Latitude Longitude Altitude Speed Heading
2026-04-22 23:34 -23.42748 -46.47644 2467 ft 0 kts 253°
2026-04-22 23:50 -23.42748 -46.47642 2467 ft 2 kts 253°
2026-04-22 23:50 -23.42743 -46.47626 2467 ft 2 kts 253°
2026-04-22 23:51 -23.42738 -46.47609 2467 ft 2 kts 253°
2026-04-22 23:51 -23.42734 -46.47592 2467 ft 2 kts 253°
2026-04-22 23:51 -23.42729 -46.47576 2467 ft 2 kts 249°
2026-04-22 23:51 -23.42720 -46.47564 2467 ft 2 kts 196°
2026-04-22 23:52 -23.42705 -46.47566 2467 ft 2 kts 162°
2026-04-22 23:52 -23.42691 -46.47570 2467 ft 0 kts 163°
2026-04-22 23:55 -23.42729 -46.47558 2467 ft 14 kts 163°
2026-04-22 23:55 -23.42843 -46.47492 2467 ft 18 kts 161°
2026-04-22 23:55 -23.42956 -46.47453 2467 ft 16 kts 161°
2026-04-22 23:55 -23.43021 -46.47368 2467 ft 18 kts 101°
2026-04-22 23:56 -23.43057 -46.47209 2467 ft 28 kts 103°
2026-04-22 23:56 -23.43064 -46.46957 2467 ft 41 kts 76°
2026-04-22 23:56 -23.42901 -46.46345 2467 ft 129 kts 73°
2026-04-22 23:56 -23.42592 -46.45150 2644 ft 197 kts 75°
2026-04-22 23:57 -23.42195 -46.43728 3936 ft 174 kts 74°
2026-04-22 23:57 -23.41877 -46.42511 5056 ft 156 kts 76°
2026-04-22 23:57 -23.41547 -46.41391 5399 ft 159 kts 73°
2026-04-22 23:57 -23.41181 -46.40206 5622 ft 175 kts 73°
2026-04-22 23:58 -23.40768 -46.38862 5983 ft 198 kts 73°
2026-04-22 23:58 -23.40328 -46.37365 6512 ft 217 kts 79°
2026-04-22 23:58 -23.40291 -46.35662 7038 ft 236 kts 99°
2026-04-22 23:58 -23.40687 -46.33848 7574 ft 257 kts 108°
2026-04-22 23:59 -23.41297 -46.31941 8164 ft 275 kts 111°
2026-04-22 23:59 -23.41980 -46.29957 8962 ft 283 kts 110°
2026-04-22 23:59 -23.42679 -46.27938 9865 ft 287 kts 116°
2026-04-22 23:59 -23.43863 -46.26206 10761 ft 288 kts 139°
2026-04-23 00:00 -23.47601 -46.24869 12507 ft 297 kts 183°
2026-04-23 00:00 -23.49632 -46.25401 13361 ft 303 kts 196°
2026-04-23 00:00 -23.51670 -46.26028 14183 ft 307 kts 191°
2026-04-23 00:01 -23.53743 -46.26655 14996 ft 313 kts 202°
2026-04-23 00:01 -23.55535 -46.28018 15805 ft 320 kts 224°
2026-04-23 00:01 -23.56777 -46.30037 16638 ft 326 kts 245°
2026-04-23 00:01 -23.57386 -46.32441 17452 ft 332 kts 258°
2026-04-23 00:02 -23.57717 -46.34950 18247 ft 336 kts 260°
2026-04-23 00:02 -23.58066 -46.37438 19315 ft 327 kts 258°
2026-04-23 00:02 -23.58423 -46.39836 20530 ft 313 kts 257°
2026-04-23 00:02 -23.58839 -46.42121 21592 ft 304 kts 255°
2026-04-23 00:03 -23.59274 -46.44382 22343 ft 305 kts 255°
2026-04-23 00:03 -23.59716 -46.46649 23016 ft 307 kts 254°
2026-04-23 00:03 -23.60169 -46.48958 23406 ft 321 kts 254°
2026-04-23 00:03 -23.60650 -46.51407 23732 ft 335 kts 254°
2026-04-23 00:04 -23.61085 -46.53916 24359 ft 339 kts 257°
2026-04-23 00:04 -23.61446 -46.56435 25095 ft 339 kts 257°
2026-04-23 00:04 -23.61807 -46.58982 25783 ft 340 kts 257°
2026-04-23 00:04 -23.62177 -46.61541 26423 ft 341 kts 257°
2026-04-23 00:05 -23.62667 -46.64062 27134 ft 336 kts 250°
2026-04-23 00:05 -23.63518 -46.66416 27771 ft 335 kts 241°
2026-04-23 00:05 -23.64653 -46.68688 27962 ft 347 kts 237°
2026-04-23 00:05 -23.65934 -46.70950 28108 ft 360 kts 236°
2026-04-23 00:06 -23.67299 -46.73297 28337 ft 370 kts 236°
2026-04-23 00:06 -23.68586 -46.75751 28753 ft 376 kts 246°
2026-04-23 00:06 -23.69199 -46.78541 29217 ft 384 kts 263°
2026-04-23 00:06 -23.68984 -46.81474 29642 ft 394 kts 280°
2026-04-23 00:07 -23.67968 -46.84277 30047 ft 404 kts 295°
2026-04-23 00:07 -23.66413 -46.86856 30452 ft 410 kts 302°
2026-04-23 00:07 -23.64700 -46.89359 30837 ft 413 kts 302°
2026-04-23 00:07 -23.63002 -46.91900 31219 ft 415 kts 301°
2026-04-23 00:08 -23.61340 -46.94438 31581 ft 417 kts 301°
2026-04-23 00:08 -23.59662 -46.97030 31930 ft 419 kts 301°
2026-04-23 00:08 -23.57981 -46.99647 32268 ft 421 kts 301°
2026-04-23 00:08 -23.56306 -47.02268 32590 ft 423 kts 300°
2026-04-23 00:09 -23.54617 -47.04915 32901 ft 425 kts 300°
2026-04-23 00:09 -23.52923 -47.07574 33199 ft 427 kts 300°
2026-04-23 00:09 -23.51229 -47.10236 33487 ft 429 kts 300°
2026-04-23 00:09 -23.49524 -47.12922 33739 ft 431 kts 301°
2026-04-23 00:10 -23.47813 -47.15613 34001 ft 433 kts 301°
2026-04-23 00:10 -23.46090 -47.18318 34263 ft 435 kts 301°
2026-04-23 00:10 -23.44363 -47.21028 34519 ft 436 kts 301°
2026-04-23 00:10 -23.42653 -47.23711 34753 ft 437 kts 301°
2026-04-23 00:11 -23.40915 -47.26438 34980 ft 439 kts 301°
2026-04-23 00:11 -23.39168 -47.29173 35199 ft 440 kts 301°
2026-04-23 00:11 -23.37410 -47.31925 35406 ft 442 kts 301°
2026-04-23 00:11 -23.35661 -47.34666 35591 ft 444 kts 301°
2026-04-23 00:12 -23.33897 -47.37441 35775 ft 445 kts 301°
2026-04-23 00:12 -23.32126 -47.40217 35967 ft 447 kts 301°
2026-04-23 00:12 -23.30346 -47.43004 36147 ft 448 kts 301°
2026-04-23 00:13 -23.26747 -47.48624 36170 ft 456 kts 301°
2026-04-23 00:13 -23.23128 -47.54267 36175 ft 459 kts 301°
2026-04-23 00:14 -23.19585 -47.60023 36170 ft 454 kts 294°
2026-04-23 00:14 -23.18375 -47.63162 36165 ft 448 kts 283°
2026-04-23 00:14 -23.17717 -47.66462 36163 ft 445 kts 274°
2026-04-23 00:15 -23.17262 -47.73144 36166 ft 443 kts 269°
2026-04-23 00:15 -23.17007 -47.79783 36166 ft 443 kts 270°
2026-04-23 00:16 -23.16749 -47.86474 36150 ft 443 kts 270°
2026-04-23 00:16 -23.16487 -47.93173 36141 ft 443 kts 270°
2026-04-23 00:17 -23.16224 -47.99858 36150 ft 442 kts 270°
2026-04-23 00:17 -23.15979 -48.06549 36142 ft 443 kts 270°
2026-04-23 00:18 -23.15723 -48.13236 36128 ft 443 kts 270°
2026-04-23 00:18 -23.15460 -48.19925 36124 ft 443 kts 270°
2026-04-23 00:19 -23.15206 -48.26603 36123 ft 442 kts 271°
2026-04-23 00:19 -23.14939 -48.33252 36120 ft 442 kts 271°
2026-04-23 00:20 -23.14662 -48.39924 36120 ft 442 kts 271°
2026-04-23 00:20 -23.14381 -48.46597 36121 ft 442 kts 271°
2026-04-23 00:21 -23.14098 -48.53274 36119 ft 442 kts 271°
2026-04-23 00:21 -23.14214 -48.59932 36118 ft 440 kts 264°
2026-04-23 00:22 -23.14809 -48.66557 36118 ft 440 kts 263°
2026-04-23 00:22 -23.15409 -48.73177 36118 ft 440 kts 263°
2026-04-23 00:23 -23.15984 -48.79761 36116 ft 440 kts 263°
2026-04-23 00:23 -23.16577 -48.86421 36116 ft 440 kts 263°
2026-04-23 00:24 -23.17147 -48.93040 36117 ft 440 kts 264°
2026-04-23 00:24 -23.17701 -48.99620 36116 ft 440 kts 264°
2026-04-23 00:25 -23.18251 -49.06233 36116 ft 439 kts 264°
2026-04-23 00:25 -23.18801 -49.12867 36116 ft 439 kts 264°
2026-04-23 00:26 -23.19378 -49.19476 36116 ft 439 kts 263°
2026-04-23 00:26 -23.19980 -49.26027 36107 ft 438 kts 263°
2026-04-23 00:26 -23.20278 -49.29306 35710 ft 434 kts 263°
2026-04-23 00:27 -23.20572 -49.32567 34962 ft 434 kts 263°
2026-04-23 00:27 -23.20868 -49.35834 34183 ft 435 kts 263°
2026-04-23 00:27 -23.21161 -49.39113 33386 ft 436 kts 263°
2026-04-23 00:27 -23.21422 -49.42411 32698 ft 435 kts 263°
2026-04-23 00:28 -23.21670 -49.45670 32100 ft 432 kts 263°
2026-04-23 00:28 -23.21796 -49.47338 31795 ft 430 kts 263°
2026-04-23 00:28 -23.21828 -49.47761 31716 ft 430 kts 263°
2026-04-23 00:29 -23.21999 -49.50035 31294 ft 424 kts 264°
2026-04-23 00:29 -23.22241 -49.53204 30618 ft 421 kts 264°
2026-04-23 00:29 -23.22475 -49.56419 29639 ft 428 kts 264°
2026-04-23 00:29 -23.22710 -49.59640 28944 ft 426 kts 263°
2026-04-23 00:30 -23.22944 -49.62836 28342 ft 422 kts 263°
2026-04-23 00:30 -23.23174 -49.65963 27762 ft 418 kts 263°
2026-04-23 00:30 -23.23404 -49.69101 27184 ft 413 kts 263°
2026-04-23 00:30 -23.23632 -49.72204 26611 ft 409 kts 263°
2026-04-23 00:31 -23.23831 -49.75282 26043 ft 406 kts 264°
2026-04-23 00:31 -23.24062 -49.78329 25478 ft 402 kts 263°
2026-04-23 00:31 -23.24311 -49.81342 24919 ft 399 kts 262°
2026-04-23 00:31 -23.24552 -49.84296 24369 ft 396 kts 263°
2026-04-23 00:32 -23.24791 -49.87267 23815 ft 393 kts 263°
2026-04-23 00:32 -23.25027 -49.90236 23260 ft 391 kts 263°
2026-04-23 00:32 -23.25258 -49.93168 22712 ft 389 kts 263°
2026-04-23 00:32 -23.25488 -49.96093 22164 ft 387 kts 263°
2026-04-23 00:33 -23.25715 -49.99006 21619 ft 385 kts 263°
2026-04-23 00:33 -23.25940 -50.01900 21076 ft 383 kts 264°
2026-04-23 00:33 -23.26167 -50.04781 20537 ft 381 kts 263°
2026-04-23 00:33 -23.26402 -50.07648 19998 ft 379 kts 264°
2026-04-23 00:34 -23.26630 -50.10495 19460 ft 377 kts 264°
2026-04-23 00:34 -23.26853 -50.13330 18922 ft 375 kts 264°
2026-04-23 00:34 -23.27069 -50.16116 18390 ft 373 kts 264°
2026-04-23 00:34 -23.27286 -50.18954 17844 ft 371 kts 264°
2026-04-23 00:35 -23.27496 -50.21705 17310 ft 369 kts 264°
2026-04-23 00:35 -23.27706 -50.24477 16767 ft 367 kts 264°
2026-04-23 00:35 -23.27912 -50.27266 16226 ft 363 kts 264°
2026-04-23 00:35 -23.28119 -50.29996 15690 ft 360 kts 264°
2026-04-23 00:36 -23.28324 -50.32696 15153 ft 357 kts 263°
2026-04-23 00:36 -23.28524 -50.35345 14622 ft 354 kts 263°
2026-04-23 00:36 -23.28753 -50.38001 14082 ft 351 kts 260°
2026-04-23 00:36 -23.29251 -50.40581 13542 ft 348 kts 253°
2026-04-23 00:37 -23.29922 -50.43102 12998 ft 345 kts 251°
2026-04-23 00:37 -23.30637 -50.45580 12456 ft 342 kts 251°
2026-04-23 00:37 -23.31349 -50.48049 11913 ft 340 kts 251°
2026-04-23 00:37 -23.32053 -50.50498 11371 ft 338 kts 251°
2026-04-23 00:38 -23.32751 -50.52930 10827 ft 335 kts 251°
2026-04-23 00:38 -23.33444 -50.55323 10509 ft 326 kts 251°
2026-04-23 00:38 -23.34108 -50.57631 10346 ft 312 kts 251°
2026-04-23 00:38 -23.34733 -50.59814 10188 ft 301 kts 251°
2026-04-23 00:39 -23.35350 -50.61977 9932 ft 297 kts 251°
2026-04-23 00:39 -23.35959 -50.64120 9507 ft 295 kts 251°
2026-04-23 00:39 -23.36560 -50.66241 9081 ft 293 kts 251°
2026-04-23 00:39 -23.37159 -50.68357 8653 ft 291 kts 251°
2026-04-23 00:40 -23.37753 -50.70455 8227 ft 289 kts 251°
2026-04-23 00:40 -23.38342 -50.72542 7802 ft 287 kts 251°
2026-04-23 00:40 -23.38928 -50.74618 7379 ft 286 kts 251°
2026-04-23 00:40 -23.39509 -50.76681 6958 ft 284 kts 251°
2026-04-23 00:41 -23.40084 -50.78721 6546 ft 282 kts 251°
2026-04-23 00:41 -23.40651 -50.80731 6142 ft 280 kts 251°
2026-04-23 00:41 -23.41221 -50.82750 5736 ft 277 kts 252°
2026-04-23 00:41 -23.41782 -50.84750 5375 ft 274 kts 253°
2026-04-23 00:42 -23.41940 -50.86763 5193 ft 263 kts 277°
2026-04-23 00:42 -23.41517 -50.88644 5112 ft 249 kts 287°
2026-04-23 00:42 -23.40966 -50.90367 5088 ft 233 kts 290°
2026-04-23 00:42 -23.40410 -50.91982 5078 ft 223 kts 290°
2026-04-23 00:43 -23.39891 -50.93511 5037 ft 209 kts 290°
2026-04-23 00:43 -23.39409 -50.94945 5001 ft 196 kts 290°
2026-04-23 00:43 -23.38952 -50.96304 4832 ft 186 kts 289°
2026-04-23 00:43 -23.38525 -50.97581 4583 ft 178 kts 289°
2026-04-23 00:44 -23.38113 -50.98812 4335 ft 167 kts 289°
2026-04-23 00:44 -23.37734 -50.99944 4159 ft 151 kts 289°
2026-04-23 00:44 -23.37384 -51.00991 3931 ft 143 kts 289°
2026-04-23 00:44 -23.37048 -51.01995 3732 ft 141 kts 289°
2026-04-23 00:45 -23.36708 -51.03012 3561 ft 144 kts 289°
2026-04-23 00:45 -23.36362 -51.04045 3373 ft 147 kts 289°
2026-04-23 00:45 -23.36011 -51.05095 3172 ft 147 kts 289°
2026-04-23 00:45 -23.35667 -51.06121 2969 ft 142 kts 289°
2026-04-23 00:46 -23.35331 -51.07127 2784 ft 142 kts 289°
2026-04-23 00:46 -23.34988 -51.08151 2605 ft 144 kts 289°
2026-04-23 00:46 -23.34647 -51.09171 2409 ft 143 kts 289°
2026-04-23 00:46 -23.34306 -51.10183 2222 ft 143 kts 289°
2026-04-23 00:47 -23.33970 -51.11176 2054 ft 140 kts 289°
2026-04-23 00:47 -23.33640 -51.12167 1903 ft 135 kts 289°
2026-04-23 00:47 -23.33438 -51.12771 1875 ft 118 kts 289°
2026-04-23 00:47 -23.33208 -51.13462 1875 ft 56 kts 289°
2026-04-23 00:48 -23.33138 -51.13680 1875 ft 11 kts 289°
2026-04-23 00:48 -23.33053 -51.13697 1875 ft 6 kts 21°
2026-04-23 00:48 -23.33004 -51.13677 1875 ft 0 kts 21°
2026-04-23 00:48 -23.32997 -51.13673 1875 ft 1 kts 21°
2026-04-23 00:49 -23.32990 -51.13671 1875 ft 4 kts 21°
2026-04-23 00:49 -23.32967 -51.13637 1875 ft 4 kts 69°
2026-04-23 00:49 -23.32939 -51.13617 1875 ft 4 kts 21°
2026-04-23 00:49 -23.32920 -51.13609 1875 ft 2 kts 21°
2026-04-23 00:50 -23.32919 -51.13608 1875 ft 0 kts 21°